Location: Unspecified
(0.0000°N, 0.0000°E)
Time: 10:46:36
(UTC+00:00)

NOSS 8 (A) - Visible Passes

Search period start: 24 April 2019 00:00
Search period end: 04 May 2019 00:00
Orbit: 392 x 1763 km, 63.3° (Epoch: 22 April)

Date Brightness Start Highest point End Pass type
(mag) Time Alt. Az. Time Alt. Az. Time Alt. Az.
24 Apr 9.2 03:15:31 10° NE 03:18:53 13° ENE 03:22:36 10° E visible
24 Apr 6.7 05:00:49 10° NNW 05:08:16 79° WSW 05:18:18 10° SSE visible
25 Apr 7.3 04:08:12 10° N 04:15:19 55° ENE 04:24:47 10° SE visible
26 Apr 8.4 03:16:36 10° NNE 03:22:36 27° ENE 03:30:05 10° SE visible
26 Apr 7.0 05:05:13 10° NW 05:12:34 46° WSW 05:22:02 10° S visible
27 Apr 9.1 02:27:47 10° ENE 02:29:59 11° ENE 02:32:17 10° E visible
27 Apr 6.6 04:11:51 10° NNW 04:19:18 86° WSW 04:29:19 10° SSE visible
28 Apr 7.4 03:19:22 10° N 03:26:22 50° ENE 03:35:39 10° SE visible
28 Apr 7.6 05:10:27 10° WNW 05:17:01 27° WSW 05:24:58 10° S visible
29 Apr 8.4 02:29:55 17° NE 02:33:42 24° ENE 02:40:41 10° ESE visible
29 Apr 6.9 04:17:12 15° NW 04:23:31 51° WSW 04:33:09 10° S visible
30 Apr 6.6 03:30:11 86° NE 03:30:18 86° ENE 03:40:18 10° SSE visible
30 Apr 8.2 05:17:17 10° W 05:21:36 14° WSW 05:26:23 10° SSW visible
01 May 8.2 02:41:47 28° ESE 02:41:47 28° ESE 02:46:27 10° SE visible
01 May 7.5 04:28:49 29° SW 04:28:49 29° SW 04:36:15 10° S visible
02 May 8.0 03:39:43 28° S 03:39:43 28° S 03:44:15 10° S visible
03 May 8.9 02:50:12 14° SSE 02:50:12 14° SSE 02:51:13 10° SSE visible
03 May 8.6 04:37:09 12° SSW 04:37:09 12° SSW 04:38:04 10° SSW visible
